This is the latest recevied weather packets stored in our database for station/object KGRR-WX. If no packets are shown the sender has not sent any weather packets the latest 10 day(s).
| Time | Temp. | Humidity | Pressure | Rain* | Wind** | Luminosity | Snow |
|---|---|---|---|---|---|---|---|
| 1788154210 | 20.56° C | 85% | 986.9 hPa | 0 mm | - | - | - |
| 1788153311 | 20.56° C | 85% | 986.9 hPa | 0 mm | - | - | - |
| 1788152410 | 20.56° C | 85% | 986.9 hPa | 0 mm | - | - | - |
| 1788151511 | 20.56° C | 86% | 987.5 hPa | 0 mm | - | - | - |
| 1788150610 | 20.56° C | 83% | 987.2 hPa | 0 mm | - | - | - |
| 1788149704 | 20.56° C | 83% | 987.2 hPa | 0 mm | - | - | - |
| 1788148810 | 20.56° C | 83% | 987.2 hPa | 0 mm | - | - | - |
| 1788147905 | 20.56° C | 83% | 986.3 hPa | 0 mm | - | - | - |
| 1788147010 | 21.11° C | 79% | 986.3 hPa | 0 mm | - | - | - |
| 1788146110 | 21.11° C | 79% | 986.3 hPa | 0 mm | - | - | - |
| 1788145210 | 21.11° C | 79% | 986.3 hPa | 0 mm | - | - | - |
| 1788144306 | 21.67° C | 80% | 986.5 hPa | 0 mm | - | - | - |
| 1788143410 | 21.67° C | 80% | 986.8 hPa | 0 mm | - | - | - |
| 1788142510 | 21.11° C | 80% | 986.8 hPa | 0 mm | - | - | - |
| 1788141610 | 21.67° C | 80% | 986.8 hPa | 0 mm | - | - | - |
| 1788140710 | 21.67° C | 85% | 986.2 hPa | 0 mm | - | - | - |
| 1788139810 | 21.67° C | 85% | 986.2 hPa | 0 mm | - | - | - |
| 1788138937 | 21.67° C | 85% | 986.2 hPa | 0 mm | - | - | - |
| 1788138005 | 22.22° C | 85% | 986.2 hPa | 0 mm | - | - | - |
| 1788137110 | 22.22° C | 78% | 986.5 hPa | 0 mm | - | - | - |
| 1788136209 | 22.78° C | 77% | 986.6 hPa | 0 mm | - | - | - |
| 1788135321 | 23.33° C | 77% | 986.6 hPa | 0 mm | - | - | - |
| 1788134410 | 23.33° C | 77% | 986.6 hPa | 0 mm | - | - | - |
| 1788133509 | 23.89° C | 71% | 986.7 hPa | 0 mm | - | - | - |
| 1788132609 | 24.44° C | 68% | 986.6 hPa | 0 mm | - | - | - |
* Rain latest hour (hover to see other rain measurements)
** Current wind speed in m/s (hover to see current wind gust speed)